Regional Weather Roundup
Issued by NWS Raleigh/Durham, NC

Home | Current Version | Previous Version | Text Only | Print | Product List | Glossary On
Versions: 1 2 3 4 5 6 7 8 9 10 11 12 13 14 15 16 17 18 19 20 21 22 23 24 25 26 27 28 29 30 31 32 33 34 35 36 37 38 39 40 41 42 43 44 45 46 47 48 49 50
000
ASUS42 KRAH 241810
RWRRAH
NORTH CAROLINA WEATHER ROUNDUP
NATIONAL WEATHER SERVICE RALEIGH NC
200 PM EDT SUN MAY 24 2015

NOTE: "FAIR" INDICATES FEW OR NO CLOUDS BELOW 12,000 FEET WITH NO
SIGNIFICANT WEATHER AND/OR OBSTRUCTIONS TO VISIBILITY.

NCZ001-053-055-056-065-067-241900-
WESTERN NORTH CAROLINA

CITY           SKY/WX    TMP DP  RH WIND       PRES   REMARKS
ASHEVILLE      MOSUNNY   76  48  37 SE8       30.40F
JEFFERSON      SUNNY     71  46  41 SE6       30.42F
MORGANTON      MOSUNNY   79  48  33 SE7       30.42F
HICKORY        MOSUNNY   77  50  38 VRB7      30.37F
RUTHERFORDTON  SUNNY     78  52  40 S3        30.38F
MOUNT AIRY     MOSUNNY   79  53  40 SE8       30.39F
BOONE          SUNNY     72  49  43 S7        30.44S
$$

NCZ021-022-025-041-071-084-088-241900-
CENTRAL NORTH CAROLINA

CITY           SKY/WX    TMP DP  RH WIND       PRES   REMARKS
CHARLOTTE      PTSUNNY   80  50  34 SE12G17   30.37F
GREENSBORO     PTSUNNY   78  52  40 SW12G18   30.37F
WINSTON-SALEM  MOSUNNY   78  53  41 VRB7      30.38F
RALEIGH-DURHAM MOSUNNY   81  56  42 SW6       30.38F
FORT BRAGG     MOSUNNY   81  54  38 S5        30.36
FAYETTEVILLE   MOSUNNY   83  54  36 MISG      30.36F
BURLINGTON     MOSUNNY   80  54  40 S9        30.38F
LAURINBURG     SUNNY     81  51  35 S12       30.37F
$$

NCZ011-015-027-028-043-044-047-080-103-241900-
NORTHEASTERN NORTH CAROLINA

CITY           SKY/WX    TMP DP  RH WIND       PRES   REMARKS
ROCKY MT-WILSO MOSUNNY   81  54  39 SW8       30.38F
GREENVILLE     MOSUNNY   81  55  41 CALM      30.38F
WASHINGTON     SUNNY     79  50  36 CALM      30.39F
ELIZABETH CITY SUNNY     77  58  51 E12       30.39F
MANTEO         SUNNY     73  54  51 E10       30.41F
CAPE HATTERAS  SUNNY     76  59  55 SE8       30.41F
$$

NCZ078-087-090-091-093-098-101-241900-
SOUTHEASTERN NORTH CAROLINA

CITY           SKY/WX    TMP DP  RH WIND       PRES   REMARKS
LUMBERTON      MOSUNNY   84  52  33 VRB5      30.36F
GOLDSBORO      MOSUNNY   81  55  40 VRB1      30.35F
KINSTON        MOSUNNY   82  54  36 SE8       30.39F
KENANSVILLE    MOSUNNY   78  52  40 CALM      30.39F
NEW BERN       SUNNY     81  51  35 SE5       30.40F
CHERRY POINT   CLOUDY    78  58  49 NE8       30.40S
BEAUFORT       SUNNY     77  55  46 SE10      30.39F
JACKSONVILLE   SUNNY     80  53  39 SE10      30.39S
WILMINGTON     MOSUNNY   79  55  43 SE12      30.39F
$$



USA.gov is the U.S. government's official web portal to all federal, state and local government web resources and services.